{"data":{"norad_id":47405,"epoch":"2026-09-19T13:50:56.068512Z","epoch_age_seconds":105422,"freshness":"FRESH","line1":"1 47405U 21005BJ  26262.57703783  .00000408  00000+0  24922-4 0  9990","line2":"2 47405  53.1599 240.1107 0001531  80.2363 279.8812 15.31696797312738","mean_motion":15.31696797,"eccentricity":0.0001531,"inclination_deg":53.1599,"raan_deg":240.1107,"arg_perigee_deg":80.2363,"mean_anomaly_deg":279.8812,"bstar":2.4922e-5,"rev_number":31273,"period_min":94.013384556291,"perigee_km":469.70097868885,"apogee_km":471.79810774838,"semimajor_km":6848.8865432186,"source":"CELESTRAK","updated_at":"2026-09-20T09:00:38.595756Z"}}